Weather in Trostianets

Ukraine / Sumi District     50°28′51″N   34°58′15″E
temp.,
°C
wind,
m/s
gust,
m/s
humid.,
%
clouds,
%
prec.,
mm/h
press.,
hPa
HPBL,
m
27 october, wed
wed2700:00+2ssw395420 0.0 1029154
03:00+1ssw395443 0.0 1029143
06:000ssw410545 0.0 1027184
09:00+2ssw512540 0.0 1026315
12:00+8sw79540 0.0 1025760
15:00+10wsw685847 0.0 10231092
18:00+9wsw486161 0.0 1023363
21:00+7wsw367497 0.0 1023183
28 october, thu
thu2800:00+5w348142 0.0 102460
03:00+4w2384100 0.0 102340
06:00+4wsw3689100 0.0 102398
09:00+6sw41081100 0.1 1022309
12:00+8sw61375100 0.4 1021490
15:00+11w5107099 0.4 1020737
18:00+9wnw498694 0.1 1021433
21:00+9nw4108779 0.1 1022437
29 october, fri
fri2900:00+7nw36940 0.0 1023103
03:00+7nnw37957 0.0 1024197
06:00+5n35925 0.0 102689
09:00+6nne37805 0.0 1028193
12:00+10ene34630 0.0 1029683
15:00+12e345813 0.0 1029984
18:00+8ene22740 0.0 102915
21:00+6ese34870 0.0 103159
30 october, sat
sat3000:00+5se34900 0.0 103254
03:00+4se23920 0.0 103232
06:00+4se33940 0.0 103334
09:00+5se24870 0.0 1033126
12:00+11sse34620 0.0 1033569
15:00+13sse34510 0.0 1032873
18:00+8se33650 0.0 103221
21:00+7se33690 0.0 103228
31 october, sun
sun3100:00+5se33740 0.0 103323
03:00+4se22780 0.0 103319
05:00+4ese22840 0.0 103222
08:00+5ese36800 0.0 1032142
11:00+11se46560 0.0 1031617
14:00+13ese45460 0.0 1028805
17:00+8e35630 0.0 102869
20:00+7ese38730 0.0 1027134